Terug naar catalogus

QIANFAN-219

ActiefCommunicatiePO
NORAD 69848·PAYLOAD·🇨🇳 China

Gelanceerd Jul 5, 2026 vanaf Wenchang Space Launch Site

Loading…

Volgende Passages (komende 24 uur)

TLE

VersSource: Space-Track

Epoch: Sep 14, 2026, 11:31 UTC

1 69848U 26155A   26257.48004966 -.01781364  00000-0 -28090+1 0  9994
2 69848  89.0073  54.3068 0040196  31.8106 328.5463 13.53788428  9929

Volg QIANFAN-219 in realtime met AllMySat

Download on the App Store